Regional Weather Roundup
Issued by NWS

Home | Current Version | Previous Version | Graphics & Text | Print | Product List | Glossary On
Versions: 1 2 3 4 5 6 7 8 9 10 11 12 13 14 15 16 17 18 19 20 21 22 23 24 25 26 27 28 29 30 31 32 33 34 35 36 37 38 39 40 41 42 43 44 45 46 47 48 49 50
333
ASUS43 KOAX 230902
RWRNE

WEATHER ROUNDUP FOR NEBRASKA
NATIONAL WEATHER SERVICE OMAHA NE
400 AM CDT SUN APR 23 2017

NOTES: SATELLITE DATA IS BEING USED TO AUGMENT CLOUD COVER ABOVE
       12000 FEET.
       "FAIR" INDICATES FEW OR NO CLOUDS BELOW 12,000 FEET WITH NO
       SIGNIFICANT WEATHER AND/OR OBSTRUCTIONS TO VISIBILITY.

  * THESE STATIONS DO NOT REPORT WEATHER SUCH AS RAIN...SNOW OR FOG.

NEZ001>004-019>022-054>056-231000-
NEBRASKA PANHANDLE

CITY           SKY/WX    TMP DP  RH WIND       PRES   REMARKS
SCOTTSBLUFF    CLOUDY    49  31  49 S7G18     30.04F
ALLIANCE       CLOUDY    36  30  79 S10       30.06F WCI  28
CHADRON        CLOUDY    50  29  44 S16G24    29.99F
KIMBALL        CLOUDY    38  34  86 S9        30.08F WCI  31
SIDNEY         CLOUDY    35  31  85 S12       30.09F WCI  27
$$

NEZ057>060-069>072-079>082-231000-
SOUTHWEST NEBRASKA

CITY           SKY/WX    TMP DP  RH WIND       PRES   REMARKS
NORTH PLATTE   CLEAR     35  28  75 CALM      30.15F
IMPERIAL       CLEAR     37  31  78 SW8       30.15F WCI  31
LEXINGTON      CLEAR     32  26  77 CALM      30.17S
MCCOOK         CLEAR     34  29  82 W8        30.16F WCI  27
OGALLALA       CLOUDY    40  31  72 SW5       30.13F
$$

NEZ005>010-023>029-035>040-094-231000-
NORTH CENTRAL NEBRASKA

CITY           SKY/WX    TMP DP  RH WIND       PRES   REMARKS
VALENTINE      PTCLDY    45  28  51 SW12      30.08F
AINSWORTH      CLEAR     43  32  66 S9        30.10F
BROKEN BOW     CLEAR     33  26  75 CALM      30.15F
O`NEILL        CLEAR     41  31  68 S6        30.14F
ORD            CLEAR     38  29  70 SW9       30.15F WCI  31
THEDFORD       CLEAR     40  30  66 S7        30.12F
$$

NEZ041-046>049-061>064-073>077-083>087-231000-
SOUTH CENTRAL NEBRASKA

CITY           SKY/WX    TMP DP  RH WIND       PRES   REMARKS
GRAND ISLAND   CLEAR     44  29  55 S7        30.18F
AURORA         CLEAR     38  26  61 SW7       30.18S WCI  33
HASTINGS       CLEAR     43  28  55 CALM      30.19F
HEBRON         CLEAR     33  31  92 CALM      30.18F
HOLDREGE       CLEAR     41  28  58 SW7       30.17S
KEARNEY *      CLEAR     43  27  52 SW6       30.18S
YORK           CLEAR     41  28  60 SW5       30.18S
$$

NEZ011>018-030>034-042>045-231000-
NORTHEAST NEBRASKA

CITY           SKY/WX    TMP DP  RH WIND       PRES   REMARKS
NORFOLK        CLEAR     39  30  70 SW5       30.16S
ALBION         CLEAR     42  31  64 CALM      30.17S
BLAIR          CLEAR     46  32  58 S3        30.16F
FREMONT        CLEAR     40  38  91 CALM      30.17S
TEKAMAH        CLEAR     41  37  86 CALM      30.16S
WAYNE          CLEAR     37  32  80 S3        30.16S
$$

NEZ050>053-065>068-078-088>093-231000-
SOUTHEAST NEBRASKA

CITY           SKY/WX    TMP DP  RH WIND       PRES   REMARKS
LINCOLN        CLEAR     37  33  85 CALM      30.19F
OMAHA EPPLEY   CLEAR     44  35  70 CALM      30.17S
BEATRICE       CLEAR     37  34  87 CALM      30.18F
FALLS CITY     CLEAR     40  33  76 CALM      30.18F
NEBRASKA CITY  CLEAR     43  28  55 SW9       30.17F
PLATTSMOUTH    CLEAR     50  22  34 CALM      30.17S
$$

NEZ044-045-051>053-067-231000-
OMAHA AREA

CITY           SKY/WX    TMP DP  RH WIND       PRES   REMARKS
OMAHA EPPLEY   CLEAR     44  35  70 CALM      30.17S
BLAIR          CLEAR     46  32  58 S3        30.16F
FREMONT        CLEAR     40  38  91 CALM      30.17S
MILLARD        CLEAR     42  40  95 CALM      30.17S
OFFUTT AFB     CLEAR     35  33  94 CALM      30.16F
PLATTSMOUTH    CLEAR     50  22  34 CALM      30.17S
WAHOO          FAIR      38  33  84 CALM      30.17S
$$




USA.gov is the U.S. government's official web portal to all federal, state and local government web resources and services.